RH
8 8 9 10 11 12 15 19 20 19 19 19 20 20 22 23 21 20 23 26 32 33 33 35 42 48 56 54 60 54 67 75 79 56 51 54 47 53 56 42 41 45 40 36 39
10 9 9 9 9 9 11 17 20 20 19 19 18 19 20 22 23 19 21 24 29 33 35 38 43 49 48 52 56 62 61 65 69 64 55 51 51 43 43 36 38 39 39 36 37
15 13 11 10 10 10 12 15 18 18 17 18 19 19 18 19 22 24 20 20 26 32 36 40 43 44 42 45 56 57 67 46 40 64 58 44 50 48 44 41 37 34 34 36 38
17 16 16 14 15 16 16 18 18 17 16 16 19 20 18 18 25 28 26 23 23 29 36 43 44 44 43 45 48 54 61 68 61 46 42 47 44 41 53 58 46 38 31 31 34
15 17 18 17 17 16 17 18 19 17 16 16 17 18 18 18 21 24 23 25 22 24 35 41 42 43 44 45 59 49 58 59 57 47 34 53 51 46 43 55 50 38 30 30 33
15 14 14 15 17 16 16 16 18 19 18 17 17 17 17 17 22 23 20 22 24 22 29 42 42 42 42 44 57 61 50 61 52 48 37 41 42 41 50 52 44 33 30 32 32
23 19 15 14 13 14 16 15 14 16 16 17 17 16 16 15 20 22 20 24 29 22 25 37 42 47 45 44 51 56 44 47 48 44 49 35 42 46 47 43 38 34 33 32 33
23 23 22 20 15 13 12 15 14 14 15 16 16 16 14 16 19 20 22 26 29 25 22 34 39 46 50 55 56 64 49 48 50 43 44 42 45 47 42 40 37 35 31 32 30
22 22 22 22 21 19 13 12 13 15 14 15 14 15 13 17 18 19 19 22 31 28 22 34 47 46 46 48 54 54 46 49 56 56 41 43 44 46 38 30 37 35 32 30 28
19 20 21 21 21 20 20 14 11 11 15 15 14 22 16 18 20 20 19 21 35 36 29 33 42 40 41 44 59 46 57 63 54 55 65 49 38 44 31 32 34 32 34 27 27
20 19 19 19 20 20 20 21 16 16 13 15 15 14 17 18 20 20 19 21 35 37 31 35 38 37 39 48 57 65 52 74 61 56 70 58 44 39 29 36 33 33 30 26 26
19 19 18 18 18 18 20 22 22 19 16 14 14 16 18 17 18 20 20 20 33 37 34 39 38 37 41 50 55 55 56 60 59 55 56 55 69 38 33 32 28 30 28 27 26
17 17 17 18 17 18 21 23 25 22 17 10 9 12 16 18 17 20 20 20 28 33 33 37 38 40 43 55 54 54 55 55 63 64 53 65 72 50 36 34 29 25 24 26 24
17 16 16 17 17 21 22 23 24 23 19 11 7 7 9 16 17 18 21 21 23 29 28 33 36 44 49 50 50 63 66 52 70 80 75 60 66 48 36 34 31 23 20 23 22
16 16 16 17 17 18 22 22 24 22 22 14 9 9 7 8 14 16 18 24 21 23 33 32 37 39 45 47 48 45 51 66 81 82 86 81 51 44 35 30 32 25 17 21 21
17 16 15 18 19 18 22 23 22 24 21 15 14 12 10 8 8 16 17 20 24 26 31 33 37 38 35 42 47 69 64 81 75 82 96 58 51 48 37 27 28 27 23 19 22
18 17 18 18 24 23 24 23 25 23 19 17 16 14 12 10 8 14 16 18 23 27 28 36 36 38 40 36 61 64 75 67 64 55 53 43 42 26 36 33 35 29 28 22 20
18 18 19 19 24 23 26 26 27 21 21 19 17 20 13 12 9 11 16 17 22 25 29 35 38 37 38 40 53 51 57 69 70 51 42 42 57 35 35 37 37 44 35 29 22
19 23 25 25 22 26 27 27 21 26 30 22 19 20 23 17 13 12 14 15 18 23 30 35 34 35 33 36 46 53 61 81 61 55 53 46 47 43 41 33 36 41 45 37 32
20 26 30 27 25 28 29 27 23 27 34 27 24 20 18 19 19 18 15 15 17 21 27 31 40 38 40 39 51 56 58 80 60 66 61 45 46 71 53 38 32 36 40 42 41
21 35 34 31 25 27 27 26 26 28 27 27 26 24 22 18 20 19 19 15 19 20 25 27 40 40 47 42 56 57 58 60 65 71 67 78 52 63 72 66 63 36 35 45 44
24 36 34 27 26 28 27 26 28 32 31 27 26 25 26 23 24 24 21 19 16 23 24 25 32 46 44 45 45 55 53 48 57 71 68 81 56 63 67 72 55 55 37 38 45
29 31 33 32 29 41 43 35 30 31 32 29 27 26 26 26 26 25 24 22 22 19 23 26 30 36 68 55 63 51 69 57 43 56 57 76 60 55 60 61 70 68 56 48 47
35 37 54 41 31 30 34 40 37 38 35 34 29 29 25 25 25 26 27 26 23 20 26 27 27 30 45 46 59 56 45 55 51 54 44 49 49 58 56 64 66 68 68 71 45
37 40 39 33 39 46 46 40 36 36 44 42 39 33 28 25 26 22 23 25 27 25 27 31 30 30 29 40 50 49 50 63 44 41 40 46 60 63 60 69 70 73 75 78 51
39 37 33 27 24 29 34 33 33 32 42 49 51 49 44 34 27 30 32 27 29 27 27 33 34 34 35 41 45 55 63 76 51 55 48 34 42 45 48 52 64 67 80 90 55
47 41 40 32 29 36 47 50 45 46 43 45 49 51 51 51 46 35 34 29 31 31 30 30 32 36 36 34 54 64 64 52 54 50 50 48 36 41 42 38 49 56 70 81 63